| time (UTC) | temp C | wind direction | speed KPH | gust KPH | rain 1hr cm | rain 24hr cm | rain mn cm | humidity % | barometer mb |
| 20260506013603 | 23 | 180 | 8.0 | 22.5 | 0.00 | 0.00 | 0.00 | 44 | 1009.4 |
| 20260506012703 | 23 | 181 | 8.0 | 32.2 | 0.00 | 0.00 | 0.00 | 43 | 1009.4 |
| 20260506011824 | 23 | 188 | 6.4 | 32.2 | 0.00 | 0.00 | 0.00 | 42 | 1009.2 |
| 20260506010904 | 24 | 190 | 6.4 | 25.7 | 0.00 | 0.00 | 0.00 | 42 | 1009.2 |
| 20260506010024 | 24 | 191 | 6.4 | 22.5 | 0.00 | 0.00 | 0.00 | 42 | 1009.1 |
| 20260506005403 | 24 | 201 | 6.4 | 22.5 | 0.00 | 0.00 | 0.00 | 41 | 1009.0 |
| 20260506004503 | 24 | 186 | 4.8 | 22.5 | 0.00 | 0.00 | 0.00 | 41 | 1008.8 |
| 20260506003605 | 25 | 187 | 4.8 | 17.7 | 0.00 | 0.00 | 0.00 | 40 | 1008.9 |
| 20260506002703 | 25 | 191 | 8.0 | 19.3 | 0.00 | 0.00 | 0.00 | 38 | 1008.8 |
| 20260506001803 | 25 | 186 | 6.4 | 17.7 | 0.00 | 0.00 | 0.00 | 37 | 1008.7 |
| 20260506000904 | 25 | 196 | 4.8 | 19.3 | 0.00 | 0.00 | 0.00 | 36 | 1008.7 |
| 20260506000026 | 25 | 204 | 6.4 | 24.1 | 0.00 | 0.00 | 0.00 | 35 | 1008.4 |
| 20260505235425 | 25 | 215 | 4.8 | 16.1 | 0.00 | 0.00 | 0.00 | 34 | 1008.5 |
| 20260505234504 | 25 | 218 | 8.0 | 22.5 | 0.00 | 0.00 | 0.00 | 34 | 1008.4 |
| 20260505233625 | 26 | 211 | 8.0 | 24.1 | 0.00 | 0.00 | 0.00 | 34 | 1008.3 |
| 20260505232726 | 26 | 185 | 6.4 | 24.1 | 0.00 | 0.00 | 0.00 | 34 | 1008.4 |
| 20260505231804 | 26 | 184 | 8.0 | 25.7 | 0.00 | 0.00 | 0.00 | 32 | 1008.1 |
| 20260505230904 | 26 | 184 | 6.4 | 24.1 | 0.00 | 0.00 | 0.00 | 32 | 1008.1 |
| 20260505230004 | 26 | 181 | 4.8 | 25.7 | 0.00 | 0.00 | 0.00 | 30 | 1008.0 |
| 20260505225405 | 26 | 199 | 6.4 | 25.7 | 0.00 | 0.00 | 0.00 | 30 | 1007.9 |
| 20260505224504 | 26 | 206 | 8.0 | 30.6 | 0.00 | 0.00 | 0.00 | 29 | 1007.7 |
| 20260505223604 | 26 | 190 | 8.0 | 19.3 | 0.00 | 0.00 | 0.00 | 29 | 1007.5 |
| 20260505222704 | 27 | 211 | 9.7 | 22.5 | 0.00 | 0.00 | 0.00 | 29 | 1007.6 |
| 20260505221804 | 27 | 236 | 6.4 | 24.1 | 0.00 | 0.00 | 0.00 | 30 | 1007.6 |
| 20260505220904 | 27 | 262 | 4.8 | 22.5 | 0.00 | 0.00 | 0.00 | 31 | 1007.6 |
| 20260505220004 | 27 | 263 | 6.4 | 27.4 | 0.00 | 0.00 | 0.00 | 30 | 1007.5 |
| 20260505215404 | 27 | 230 | 8.0 | 24.1 | 0.00 | 0.00 | 0.00 | 30 | 1007.4 |
| 20260505214504 | 27 | 215 | 6.4 | 16.1 | 0.00 | 0.00 | 0.00 | 30 | 1007.4 |
| 20260505213604 | 27 | 257 | 9.7 | 30.6 | 0.00 | 0.00 | 0.00 | 29 | 1007.3 |
| 20260505212725 | 27 | 293 | 8.0 | 30.6 | 0.00 | 0.00 | 0.00 | 29 | 1007.2 |
| 20260505211804 | 28 | 218 | 8.0 | 30.6 | 0.00 | 0.00 | 0.00 | 29 | 1007.2 |
| 20260505210904 | 28 | 201 | 11.3 | 37.0 | 0.00 | 0.00 | 0.00 | 29 | 1007.1 |
| 20260505210004 | 28 | 220 | 8.0 | 25.7 | 0.00 | 0.00 | 0.00 | 30 | 1007.1 |
| 20260505205404 | 28 | 222 | 8.0 | 25.7 | 0.00 | 0.00 | 0.00 | 29 | 1006.9 |
| 20260505204503 | 28 | 227 | 8.0 | 27.4 | 0.00 | 0.00 | 0.00 | 29 | 1006.9 |
| 20260505203604 | 28 | 238 | 8.0 | 24.1 | 0.00 | 0.00 | 0.00 | 31 | 1007.0 |
| 20260505202704 | 28 | 209 | 8.0 | 27.4 | 0.00 | 0.00 | 0.00 | 30 | 1007.2 |
| 20260505201803 | 28 | 203 | 9.7 | 25.7 | 0.00 | 0.00 | 0.00 | 30 | 1007.2 |
| 20260505200904 | 28 | 204 | 9.7 | 29.0 | 0.00 | 0.00 | 0.00 | 30 | 1007.3 |
| 20260505200025 | 28 | 197 | 11.3 | 35.4 | 0.00 | 0.00 | 0.00 | 30 | 1007.3 |
| 20260505195404 | 28 | 196 | 11.3 | 32.2 | 0.00 | 0.00 | 0.00 | 30 | 1007.4 |
| 20260505194504 | 28 | 195 | 11.3 | 38.6 | 0.00 | 0.00 | 0.00 | 30 | 1007.4 |
| 20260505193604 | 28 | 206 | 11.3 | 33.8 | 0.00 | 0.00 | 0.00 | 30 | 1007.6 |
| 20260505192727 | 28 | 201 | 12.9 | 32.2 | 0.00 | 0.00 | 0.00 | 30 | 1007.8 |
| 20260505191804 | 28 | 176 | 12.9 | 38.6 | 0.00 | 0.00 | 0.00 | 32 | 1007.8 |
| 20260505190904 | 28 | 194 | 9.7 | 30.6 | 0.00 | 0.00 | 0.00 | 31 | 1008.0 |
| 20260505190025 | 28 | 184 | 11.3 | 30.6 | 0.00 | 0.00 | 0.00 | 32 | 1008.1 |
| 20260505185404 | 28 | 184 | 11.3 | 32.2 | 0.00 | 0.00 | 0.00 | 33 | 1008.2 |
| 20260505184525 | 28 | 188 | 9.7 | 32.2 | 0.00 | 0.00 | 0.00 | 32 | 1008.7 |
| 20260505183605 | 28 | 200 | 9.7 | 27.4 | 0.00 | 0.00 | 0.00 | 35 | 1008.6 |
| 20260505182703 | 27 | 190 | 9.7 | 30.6 | 0.00 | 0.00 | 0.00 | 37 | 1008.6 |
| 20260505181803 | 27 | 194 | 11.3 | 33.8 | 0.00 | 0.00 | 0.00 | 36 | 1008.6 |
| 20260505180905 | 27 | 190 | 14.5 | 30.6 | 0.00 | 0.00 | 0.00 | 36 | 1008.7 |
| 20260505180004 | 27 | 173 | 12.9 | 48.3 | 0.00 | 0.00 | 0.00 | 35 | 1008.9 |
| 20260505175404 | 27 | 176 | 11.3 | 32.2 | 0.00 | 0.00 | 0.00 | 36 | 1008.6 |
| 20260505174503 | 27 | 184 | 11.3 | 30.6 | 0.00 | 0.00 | 0.00 | 35 | 1008.8 |
| 20260505173603 | 27 | 182 | 8.0 | 25.7 | 0.00 | 0.00 | 0.00 | 38 | 1008.9 |
| 20260505172724 | 27 | 185 | 4.8 | 17.7 | 0.00 | 0.00 | 0.00 | 39 | 1009.1 |
| 20260505171803 | 27 | 198 | 8.0 | 25.7 | 0.00 | 0.00 | 0.00 | 39 | 1009.2 |
| 20260505170924 | 27 | 203 | 4.8 | 25.7 | 0.00 | 0.00 | 0.00 | 40 | 1009.2 |
| 20260505170003 | 27 | 182 | 6.4 | 29.0 | 0.00 | 0.00 | 0.00 | 39 | 1009.3 |
| 20260505165403 | 26 | 183 | 9.7 | 29.0 | 0.00 | 0.00 | 0.00 | 40 | 1009.5 |
| 20260505164504 | 26 | 199 | 6.4 | 22.5 | 0.00 | 0.00 | 0.00 | 41 | 1009.6 |
| 20260505163605 | 27 | 186 | 4.8 | 14.5 | 0.00 | 0.00 | 0.00 | 41 | 1009.7 |
| 20260505162703 | 26 | 225 | 4.8 | 16.1 | 0.00 | 0.00 | 0.00 | 42 | 1009.9 |
| 20260505161803 | 26 | 203 | 8.0 | 27.4 | 0.00 | 0.00 | 0.00 | 41 | 1010.1 |
| 20260505160924 | 26 | 200 | 6.4 | 22.5 | 0.00 | 0.00 | 0.00 | 44 | 1010.0 |
| 20260505152704 | 25 | 185 | 4.8 | 14.5 | 0.00 | 0.00 | 0.00 | 45 | 1010.7 |
| 20260505151803 | 24 | 233 | 4.8 | 16.1 | 0.00 | 0.00 | 0.00 | 47 | 1010.8 |
| 20260505150903 | 24 | 218 | 3.2 | 22.5 | 0.00 | 0.00 | 0.00 | 49 | 1010.8 |
| 20260505124505 | 19 | 184 | 4.8 | 14.5 | 0.00 | 0.00 | 0.00 | 62 | 1010.7 |
| 20260505123604 | 18 | 202 | 6.4 | 14.5 | 0.00 | 0.00 | 0.00 | 65 | 1010.7 |
| 20260505122705 | 17 | 178 | 4.8 | 11.3 | 0.00 | 0.00 | 0.00 | 69 | 1010.8 |
| 20260505121825 | 17 | 190 | 3.2 | 11.3 | 0.00 | 0.00 | 0.00 | 71 | 1010.9 |
| 20260505120904 | 16 | 191 | 3.2 | 8.0 | 0.00 | 0.00 | 0.00 | 75 | 1011.1 |
| 20260505120005 | 15 | 186 | 3.2 | 8.0 | 0.00 | 0.00 | 0.00 | 78 | 1011.1 |
| 20260505115404 | 15 | 194 | 3.2 | 8.0 | 0.00 | 0.00 | 0.00 | 82 | 1011.1 |
| 20260505114504 | 14 | 179 | 1.6 | 8.0 | 0.00 | 0.00 | 0.00 | 81 | 1011.1 |
| 20260505113604 | 14 | 212 | 1.6 | 4.8 | 0.00 | 0.00 | 0.00 | 81 | 1011.1 |
| 20260505112704 | 14 | 162 | 3.2 | 8.0 | 0.00 | 0.00 | 0.00 | 80 | 1010.8 |
| 20260505111804 | 14 | 163 | 3.2 | 8.0 | 0.00 | 0.00 | 0.00 | 79 | 1010.9 |
| 20260505110904 | 15 | 144 | 3.2 | 8.0 | 0.00 | 0.00 | 0.00 | 74 | 1010.9 |
| 20260505101804 | 13 | 222 | 3.2 | 11.3 | 0.00 | 0.00 | 0.00 | 75 | 1010.9 |
| 20260505100904 | 12 | 130 | 1.6 | 8.0 | 0.00 | 0.00 | 0.00 | 79 | 1010.6 |
| 20260505100004 | 11 | 358 | 1.6 | 17.7 | 0.00 | 0.00 | 0.00 | 82 | 1010.5 |
| 20260505095404 | 11 | 305 | 1.6 | 17.7 | 0.00 | 0.00 | 0.00 | 85 | 1010.4 |
| 20260505094504 | 10 | 307 | 1.6 | 3.2 | 0.00 | 0.00 | 0.00 | 86 | 1010.4 |
| 20260505093604 | 10 | 309 | 1.6 | 4.8 | 0.00 | 0.00 | 0.00 | 86 | 1010.1 |
| 20260505092703 | 10 | 0 | 0.0 | 3.2 | 0.00 | 0.00 | 0.00 | 85 | 1010.0 |
| 20260505091804 | 10 | 0 | 0.0 | 3.2 | 0.00 | 0.00 | 0.00 | 85 | 1010.2 |
| 20260505090904 | 10 | 0 | 0.0 | 3.2 | 0.00 | 0.00 | 0.00 | 85 | 1010.2 |
| 20260505090004 | 10 | 301 | 1.6 | 3.2 | 0.00 | 0.00 | 0.00 | 83 | 1010.1 |
| 20260505085404 | 10 | 0 | 0.0 | 3.2 | 0.00 | 0.00 | 0.00 | 83 | 1010.2 |
| 20260505084524 | 10 | 0 | 0.0 | 1.6 | 0.00 | 0.00 | 0.00 | 82 | 1010.2 |
| 20260505083625 | 11 | 0 | 0.0 | 1.6 | 0.00 | 0.00 | 0.00 | 81 | 1010.1 |
| 20260505082703 | 11 | 0 | 0.0 | 1.6 | 0.00 | 0.00 | 0.00 | 80 | 1010.1 |
| 20260505081804 | 11 | 0 | 0.0 | 1.6 | 0.00 | 0.00 | 0.00 | 79 | 1010.1 |
| 20260505080903 | 11 | 306 | 1.6 | 3.2 | 0.00 | 0.00 | 0.00 | 78 | 1010.2 |
| 20260505080003 | 12 | 0 | 0.0 | 1.6 | 0.00 | 0.00 | 0.00 | 77 | 1010.0 |
| 20260505075404 | 12 | 303 | 1.6 | 3.2 | 0.00 | 0.00 | 0.00 | 76 | 1010.1 |
| 20260505074524 | 12 | 0 | 0.0 | 3.2 | 0.00 | 0.00 | 0.00 | 75 | 1010.1 |
| 20260505073606 | 12 | 0 | 0.0 | 3.2 | 0.00 | 0.00 | 0.00 | 73 | 1010.0 |
| 20260505072703 | 13 | 0 | 0.0 | 1.6 | 0.00 | 0.00 | 0.00 | 73 | 1010.1 |
| 20260505071803 | 13 | 0 | 0.0 | 3.2 | 0.00 | 0.00 | 0.00 | 73 | 1010.1 |
| 20260505070925 | 13 | 121 | 1.6 | 4.8 | 0.00 | 0.00 | 0.00 | 72 | 1009.9 |
| 20260505070004 | 13 | 106 | 1.6 | 6.4 | 0.00 | 0.00 | 0.00 | 72 | 1009.9 |
| 20260505065404 | 13 | 152 | 1.6 | 6.4 | 0.00 | 0.00 | 0.00 | 72 | 1010.0 |
| 20260505064503 | 12 | 0 | 0.0 | 3.2 | 0.00 | 0.00 | 0.00 | 73 | 1009.9 |
| 20260505063604 | 12 | 0 | 0.0 | 4.8 | 0.00 | 0.00 | 0.00 | 72 | 1010.0 |
| 20260505062704 | 12 | 187 | 1.6 | 6.4 | 0.00 | 0.00 | 0.00 | 73 | 1010.1 |
| 20260505061804 | 12 | 0 | 0.0 | 3.2 | 0.00 | 0.00 | 0.00 | 73 | 1010.1 |
| 20260505060904 | 12 | 174 | 1.6 | 6.4 | 0.00 | 0.00 | 0.00 | 73 | 1010.2 |
| 20260505060004 | 12 | 0 | 0.0 | 6.4 | 0.00 | 0.00 | 0.00 | 73 | 1010.2 |
| 20260505055404 | 12 | 0 | 0.0 | 3.2 | 0.00 | 0.00 | 0.00 | 73 | 1010.3 |
| 20260505054504 | 12 | 0 | 0.0 | 3.2 | 0.00 | 0.00 | 0.00 | 72 | 1010.3 |
| 20260505053603 | 12 | 0 | 0.0 | 3.2 | 0.00 | 0.00 | 0.00 | 70 | 1010.4 |
| 20260505052725 | 13 | 0 | 0.0 | 3.2 | 0.00 | 0.00 | 0.00 | 68 | 1010.4 |
| 20260505051825 | 13 | 0 | 0.0 | 1.6 | 0.00 | 0.00 | 0.00 | 66 | 1010.5 |
| 20260505050904 | 14 | 0 | 0.0 | 1.6 | 0.00 | 0.00 | 0.00 | 65 | 1010.6 |
| 20260505040904 | 15 | 0 | 0.0 | 6.4 | 0.00 | 0.00 | 0.00 | 61 | 1010.6 |
| 20260505040005 | 15 | 175 | 1.6 | 6.4 | 0.00 | 0.00 | 0.00 | 60 | 1010.7 |
| 20260505035404 | 15 | 193 | 1.6 | 4.8 | 0.00 | 0.00 | 0.00 | 60 | 1010.7 |
| 20260505034505 | 15 | 185 | 1.6 | 8.0 | 0.00 | 0.00 | 0.00 | 59 | 1010.8 |
| 20260505033603 | 15 | 183 | 1.6 | 8.0 | 0.00 | 0.00 | 0.00 | 58 | 1010.8 |
| 20260505032705 | 16 | 180 | 1.6 | 6.4 | 0.00 | 0.00 | 0.00 | 57 | 1010.8 |
| 20260505031804 | 16 | 179 | 1.6 | 6.4 | 0.00 | 0.00 | 0.00 | 56 | 1010.8 |
| 20260505030903 | 16 | 184 | 3.2 | 9.7 | 0.00 | 0.00 | 0.00 | 55 | 1010.8 |
| 20260505030004 | 16 | 188 | 3.2 | 14.5 | 0.00 | 0.00 | 0.00 | 55 | 1010.9 |
| 20260505025403 | 16 | 182 | 3.2 | 14.5 | 0.00 | 0.00 | 0.00 | 54 | 1010.9 |
| 20260505024504 | 16 | 164 | 1.6 | 9.7 | 0.00 | 0.00 | 0.00 | 54 | 1010.9 |
| 20260505023605 | 16 | 178 | 1.6 | 8.0 | 0.00 | 0.00 | 0.00 | 54 | 1010.9 |
| 20260505022703 | 16 | 198 | 1.6 | 6.4 | 0.00 | 0.00 | 0.00 | 54 | 1011.0 |
| 20260505021825 | 16 | 186 | 1.6 | 6.4 | 0.00 | 0.00 | 0.00 | 54 | 1011.0 |
| 20260505020903 | 16 | 194 | 1.6 | 6.4 | 0.00 | 0.00 | 0.00 | 53 | 1011.1 |
| 20260505020026 | 16 | 192 | 1.6 | 8.0 | 0.00 | 0.00 | 0.00 | 52 | 1011.0 |
| 20260505015425 | 15 | 185 | 1.6 | 4.8 | 0.00 | 0.00 | 0.00 | 53 | 1011.0 |
| 20260505014525 | 16 | 0 | 0.0 | 0.0 | 0.00 | 0.00 | 0.00 | 50 | 1010.9 |